Probability
2 5 8 8 7 5 1 0 0 0 0 0 0 0 0 0 0 0 0 0 0 0 0 0 0 0 0 0 0 0 0 0 0 0 0 0 0 0 0 0 0 0 0
5 7 9 10 8 5 2 0 0 0 0 0 0 0 0 0 0 0 0 0 0 0 0 0 0 0 0 0 0 0 0 0 0 0 0 0 0 0 0 0 0 0 0
15 12 10 12 10 6 3 1 0 0 0 0 0 0 0 0 0 0 0 0 0 0 0 0 0 0 0 0 0 0 0 0 0 0 0 0 0 0 0 0 0 0 0
21 16 12 13 12 8 5 2 1 0 0 0 0 0 0 0 0 0 0 0 0 0 0 0 0 0 0 0 0 0 0 0 0 0 0 0 0 0 0 0 0 0 0
22 17 13 13 13 10 7 4 2 1 0 0 0 0 0 0 0 0 0 0 0 0 0 0 0 0 0 0 0 0 0 0 0 0 0 0 0 0 0 0 0 0 0
23 18 14 14 14 13 10 7 3 1 0 0 0 0 0 0 0 0 0 0 0 0 0 0 0 0 0 0 0 0 0 0 0 0 0 0 0 0 0 0 0 0 0
25 21 18 18 17 16 14 10 5 1 0 0 0 0 0 0 0 0 0 0 0 0 0 0 0 0 0 0 0 0 0 0 0 0 0 0 0 0 0 0 0 0 0
29 26 23 22 21 19 18 13 7 3 1 1 1 0 0 0 0 0 0 0 0 0 0 0 0 0 0 0 0 0 0 0 0 0 0 0 0 0 0 0 0 0 0
30 27 24 21 20 20 18 15 10 5 3 2 2 1 0 0 0 0 0 0 0 0 0 0 0 0 0 0 0 0 0 0 0 0 0 0 0 0 0 0 0 0 0
22 21 19 18 18 17 16 15 12 8 5 3 3 2 1 0 0 0 0 0 0 0 0 1 1 0 0 1 1 1 0 0 0 0 0 0 0 0 0 0 0 0 0
11 12 13 14 14 13 13 13 12 10 7 3 2 2 1 0 0 0 0 0 0 1 1 3 3 1 1 1 0 0 0 0 0 0 0 0 1 1 1 1 0 0 0
6 6 6 8 9 9 11 12 11 10 7 2 2 3 2 0 0 0 1 1 1 2 3 5 5 3 2 1 0 0 0 0 0 0 0 1 3 4 4 4 3 1 1
7 6 5 5 5 7 10 10 10 8 5 2 2 3 2 0 0 0 2 3 3 3 3 5 5 4 2 1 1 0 0 0 0 0 0 1 5 8 8 7 6 3 2
12 10 8 7 7 9 10 10 9 8 5 3 2 2 1 1 1 1 3 5 5 4 3 4 4 2 1 2 2 1 0 0 0 0 0 1 6 10 11 10 8 7 5
17 15 12 11 11 11 10 9 8 6 4 2 1 1 2 1 1 3 4 4 4 4 3 3 2 2 1 2 3 2 0 0 0 0 0 1 5 10 14 15 12 11 10
20 19 16 13 13 12 10 8 5 4 3 2 2 2 2 2 2 3 3 2 2 2 2 1 1 1 2 3 3 1 0 0 0 0 0 1 3 9 15 16 16 16 15
25 23 17 14 14 12 10 7 4 4 4 3 4 4 3 2 2 4 3 1 1 1 1 0 0 0 1 2 2 1 0 0 0 0 0 0 2 6 10 13 15 17 18
25 21 16 13 12 11 9 5 3 4 4 3 3 3 2 1 2 3 4 2 1 0 0 0 0 0 0 1 1 0 0 0 0 0 0 0 0 2 4 7 11 13 15
16 14 12 10 10 9 7 4 1 1 1 1 1 1 1 0 1 2 2 1 1 0 0 0 0 0 0 0 0 0 0 0 0 0 0 0 0 0 1 3 7 8 9
9 8 8 8 7 6 5 2 0 0 0 0 0 0 0 0 0 1 1 0 0 0 0 0 0 0 0 0 0 0 0 0 0 0 0 0 0 0 0 1 3 4 4
6 5 5 6 5 3 2 0 0 0 0 0 0 0 0 0 0 0 0 0 0 0 0 0 0 0 0 0 0 0 0 0 0 0 0 0 0 0 0 0 1 1 1
5 4 3 3 2 1 0 0 0 0 0 0 0 0 0 0 0 0 0 0 0 0 0 0 0 0 0 0 0 0 0 0 0 0 0 0 0 0 0 0 0 0 0
5 4 2 1 0 0 0 0 0 0 0 0 0 0 0 0 0 0 0 0 0 0 0 0 0 0 0 0 0 0 0 0 0 0 0 0 0 0 0 0 0 1 1
4 3 1 0 0 0 0 0 0 0 0 0 0 0 0 0 0 0 0 0 0 0 0 0 0 0 0 0 0 0 0 0 0 0 0 0 0 0 0 0 0 0 0
1 1 0 0 0 0 0 0 0 0 0 0 0 0 0 0 0 0 0 0 0 0 0 0 0 0 0 0 0 0 0 0 0 0 0 0 0 0 0 0 0 0 0
0 0 0 0 0 0 0 0 0 0 0 0 0 0 0 0 0 0 0 0 0 0 0 0 0 0 0 0 0 0 0 0 0 0 0 0 0 0 0 0 0 0 0
Wind_Speed
9 10 16 18 19 19 19 18 18 18 18 18 18 18 18 17 17 16 16 15 14 13 12 12 12 12 12 12 13 13 13 13 13 14 14 14 13 14 15 16 15 11 17
13 12 17 18 19 19 18 18 18 17 17 17 17 17 17 17 16 15 15 14 13 13 12 12 12 11 11 12 12 12 11 12 12 13 14 13 13 13 14 15 14 10 16
15 12 15 17 18 18 18 18 17 17 17 16 16 16 16 16 15 14 14 13 13 12 12 12 11 11 11 11 10 10 10 10 11 12 11 6 8 13 14 15 15 15 15
15 11 13 18 18 18 18 17 17 17 16 16 16 15 15 15 14 14 13 13 12 12 12 11 11 10 10 10 9 8 8 8 8 9 5 4 6 13 15 15 15 15 15
12 9 14 19 18 18 18 17 17 17 16 16 15 15 14 14 14 13 12 12 12 11 11 10 10 9 9 8 8 7 6 5 5 6 5 4 5 12 15 15 14 14 14
10 9 13 19 18 18 18 17 16 16 16 15 14 14 14 13 13 13 12 12 11 11 10 9 9 8 8 7 6 5 4 4 4 4 5 5 5 11 14 14 14 14 13
10 8 12 19 18 18 17 17 16 16 15 14 14 13 13 13 12 12 11 11 11 10 10 9 8 7 6 5 4 4 3 3 4 4 5 5 6 12 14 14 13 13 13
12 9 11 18 18 17 17 16 16 15 15 14 13 12 12 11 11 11 11 10 10 10 9 8 7 6 5 4 3 2 2 3 4 5 4 5 9 12 14 13 13 13 13
11 9 8 9 13 16 16 15 15 14 14 13 13 12 11 11 10 10 9 9 9 9 9 8 7 6 5 4 2 1 1 2 3 2 5 4 10 14 14 14 13 13 13
8 8 7 7 7 7 9 14 14 14 13 12 12 11 10 9 9 9 8 8 9 9 8 8 8 7 5 4 3 2 1 1 1 1 3 5 12 14 15 15 14 14 13
9 6 7 7 6 6 6 10 11 12 11 10 8 10 8 3 3 5 7 8 8 8 8 8 7 7 5 4 5 4 2 0 1 1 3 8 13 15 16 15 15 14 14
9 7 6 7 7 6 6 5 4 4 4 4 3 4 3 2 2 4 6 9 9 8 8 7 7 6 4 2 3 4 1 1 1 2 4 10 13 15 16 16 15 15 15
10 9 7 7 7 6 5 4 2 2 2 3 3 4 3 2 1 1 1 3 3 5 3 3 3 2 2 2 2 2 2 2 1 2 3 9 13 16 16 17 16 16 16
8 8 7 7 6 5 5 4 3 3 2 2 3 4 3 2 2 2 1 1 1 1 2 2 2 2 2 3 3 3 3 2 2 2 3 9 12 15 17 17 17 17 17
7 7 7 7 7 6 5 3 4 3 3 3 3 3 4 3 3 2 1 1 1 1 1 1 2 2 2 2 2 3 3 3 3 3 2 9 13 16 17 18 18 18 18
7 7 6 7 7 7 5 4 3 3 3 3 3 3 4 3 3 3 2 1 1 1 1 1 2 1 1 1 2 3 3 3 3 3 3 6 13 15 16 17 18 19 19
7 7 7 7 6 7 5 5 4 3 3 2 2 3 4 3 3 3 2 1 1 1 1 0 0 0 0 1 2 2 2 3 3 4 4 4 6 13 16 17 18 18 20
8 7 6 7 6 6 5 4 4 3 3 2 2 2 3 4 4 3 3 2 1 1 1 1 1 1 1 1 2 2 2 2 4 4 4 5 5 6 11 17 18 18 20
7 7 6 5 5 5 5 4 4 3 3 2 2 2 2 3 4 3 3 2 2 2 2 1 1 1 1 2 2 2 2 3 4 5 5 5 6 6 6 11 17 18 21
6 7 6 5 5 5 4 4 3 3 2 2 2 2 3 3 4 4 3 2 3 2 2 1 1 1 0 1 3 3 3 3 3 3 4 4 4 6 6 7 7 11 19
5 6 5 5 5 4 3 3 3 2 1 1 1 2 3 3 3 3 2 3 2 2 1 1 1 1 1 1 2 4 4 3 2 2 2 2 3 4 4 5 5 5 6
6 5 5 5 5 4 3 2 2 2 2 2 1 2 2 3 3 3 3 2 2 2 3 2 2 1 2 1 1 1 4 5 4 3 2 1 2 2 3 5 5 6 5
7 6 6 5 5 4 4 3 3 3 3 3 2 1 1 1 2 2 3 3 3 3 1 1 1 2 0 1 1 2 1 2 4 4 3 2 3 2 3 3 4 5 7
7 6 6 5 5 4 4 4 4 3 2 1 1 0 1 1 0 1 2 3 3 2 2 1 1 1 1 1 2 0 2 3 1 3 4 3 4 3 4 4 3 4 5
8 7 6 6 5 4 5 5 5 4 2 1 1 2 2 2 2 2 3 3 3 2 1 1 1 0 1 1 1 1 1 0 1 2 4 4 4 3 3 4 3 3 4
7 7 7 6 5 5 5 6 6 5 4 4 3 2 2 2 2 3 3 3 2 1 1 0 0 1 1 1 1 1 1 1 1 1 3 3 4 4 4 3 3 3 3
Wind_Direction
148 153 145 137 132 128 124 120 117 115 112 110 109 108 108 108 109 110 110 110 109 107 105 104 101 100 99 100 101 103 106 109 110 111 111 111 114 116 116 113 111 109 112
144 150 145 139 135 131 128 125 122 120 118 117 116 115 114 114 114 114 114 112 111 109 107 106 104 104 102 101 103 105 107 110 112 113 111 111 115 118 117 116 115 118 117
138 143 142 139 137 134 132 129 128 126 124 123 122 121 120 119 119 118 117 115 114 113 112 110 108 107 106 104 104 104 107 111 114 112 107 102 113 121 120 120 120 119 117
136 138 141 140 138 137 136 134 132 131 130 129 128 127 125 125 124 124 122 119 118 117 116 114 112 110 108 106 103 102 105 111 117 118 112 111 114 121 122 122 123 122 120
130 134 143 140 139 139 138 136 135 135 135 135 134 133 132 131 130 129 127 124 123 121 119 118 117 114 111 106 103 100 99 104 110 113 119 114 113 127 127 127 126 126 125
127 131 141 139 138 139 139 139 139 139 139 139 140 139 138 137 136 135 134 132 130 127 125 124 122 121 118 112 105 97 85 82 93 112 126 130 129 134 133 133 132 132 130
128 130 138 138 138 139 139 140 142 141 142 142 142 142 142 142 143 141 141 140 138 135 134 133 130 130 128 121 109 87 61 63 92 124 138 143 144 142 140 139 138 137 136
134 131 136 138 138 139 140 141 142 142 143 144 144 145 146 148 147 146 146 146 146 146 144 145 145 144 143 138 126 90 40 50 91 130 147 154 155 149 147 145 144 144 143
132 131 130 137 138 140 141 141 142 144 146 148 149 151 153 153 154 154 154 156 156 157 158 160 162 163 164 168 174 176 16 51 85 124 160 162 164 159 156 154 153 153 151
130 132 131 130 130 134 140 145 146 148 151 153 154 156 158 159 161 164 164 169 171 172 174 175 177 180 182 192 213 234 272 39 105 158 161 182 176 169 164 163 162 162 161
137 141 140 137 136 136 143 151 150 152 156 155 157 162 158 152 160 173 180 185 185 184 187 189 191 194 195 210 229 241 259 180 166 178 181 192 185 179 173 171 170 169 169
150 157 154 149 149 150 153 140 141 147 150 146 144 148 138 155 184 186 196 197 195 194 196 199 200 197 199 219 247 252 236 231 204 191 201 197 191 186 181 179 178 177 176
157 160 158 161 160 158 141 145 139 135 143 152 152 151 142 139 147 154 156 198 208 199 195 201 202 202 197 207 223 231 227 230 227 219 212 201 197 193 188 186 186 184 183
148 148 152 154 147 140 130 141 146 145 146 149 149 149 138 124 116 128 135 149 170 167 185 184 189 215 216 226 227 224 223 219 226 221 219 214 206 200 195 192 193 191 189
136 140 145 135 125 120 119 132 130 134 140 145 136 139 138 132 134 136 126 124 139 161 180 178 196 214 227 244 250 235 227 216 219 215 233 225 213 207 203 199 200 199 196
134 139 136 121 122 121 117 116 119 115 126 129 133 146 143 139 136 128 113 105 123 198 190 189 200 204 225 234 260 251 240 226 216 216 222 227 222 215 211 207 206 205 202
140 132 130 121 117 119 120 122 117 124 127 127 137 142 135 128 126 120 116 117 153 198 170 155 113 81 291 288 277 271 255 242 222 223 223 223 228 224 219 215 213 210 208
134 127 129 127 121 117 119 118 118 132 133 137 135 132 130 130 127 122 124 119 115 89 92 107 76 57 356 316 290 282 275 268 250 237 226 225 224 227 227 225 221 217 215
126 121 118 125 124 118 113 108 112 118 128 133 129 126 125 127 128 125 120 109 90 75 56 52 71 91 350 315 292 281 278 267 258 254 242 233 225 222 223 231 229 225 223
126 122 127 128 122 117 106 99 92 88 100 118 132 139 136 131 125 116 109 94 89 80 52 37 40 21 308 302 311 316 295 278 270 255 248 241 231 228 224 229 230 234 231
124 130 137 133 133 124 112 109 108 109 106 107 131 135 133 126 117 112 110 100 92 86 73 47 44 10 343 3 17 336 320 307 292 271 262 259 254 246 232 227 223 224 234
147 144 139 137 136 134 130 129 132 125 106 103 82 76 90 107 121 128 128 124 110 89 55 40 55 38 341 24 75 12 341 336 333 327 322 302 291 277 254 242 228 223 228
153 156 151 147 140 138 126 101 82 67 61 50 41 32 20 110 136 141 149 138 124 115 102 62 84 107 347 328 106 140 115 290 312 322 332 342 328 303 280 268 249 236 230
163 158 146 148 142 137 122 112 114 115 115 147 173 44 355 12 62 129 136 131 125 119 112 84 104 124 127 310 325 231 188 194 232 311 320 327 326 315 303 292 275 258 243
161 153 152 148 144 141 129 125 118 114 127 117 78 60 36 22 36 74 104 114 118 117 118 96 69 78 162 191 233 278 309 281 184 195 293 318 325 312 303 293 288 277 262
161 154 149 146 147 142 130 127 129 129 123 103 82 74 45 22 26 54 89 96 109 121 153 212 250 275 248 231 227 220 210 229 248 217 255 289 298 296 298 291 290 282 274